RH
77 89 89 78 71 67 60 59 66 70 69 69 76 89 95 97 102 88 62 53 52 49 52 58 57 49 54 69 78 87 98 100 100 100 99 99 95 84 76 71 72 77 80 82 89 99 100 98 100 101 100 101 100 100 100 99 100 99 99 99 97 95 94 96 98 90 81 80 80 77 75 73 71 68 65 63 62 62 62 59 60 65 67 65 66
86 86 80 71 66 60 53 51 55 53 48 49 60 74 85 94 101 93 74 62 56 52 52 53 55 51 51 62 75 86 97 101 101 101 99 100 98 85 74 73 78 84 91 96 98 101 101 100 100 100 100 100 100 100 100 99 100 100 99 99 100 97 95 99 101 94 86 82 79 76 73 70 69 67 62 61 62 61 57 56 65 70 66 63 65
81 73 72 69 59 51 51 51 49 47 44 46 56 65 70 81 96 97 84 69 56 50 51 53 54 54 53 59 67 74 85 93 98 101 100 100 100 86 70 72 85 95 99 103 103 101 100 100 100 100 100 100 100 100 100 100 99 100 99 98 99 98 95 97 100 98 94 88 81 78 73 69 68 63 58 60 62 60 55 58 68 69 63 63 66
70 61 61 64 56 51 54 53 48 46 47 50 59 65 63 69 86 92 78 65 57 51 50 52 55 56 55 57 62 71 80 86 94 101 100 100 100 85 66 66 83 98 101 102 103 101 100 100 100 100 100 100 100 100 100 99 97 100 101 97 96 98 97 96 97 97 97 92 83 76 71 68 65 60 57 62 64 60 58 65 70 67 62 63 65
60 55 55 58 59 58 54 50 47 47 50 55 61 66 65 66 75 78 67 59 57 53 51 52 54 55 56 59 62 70 79 82 91 101 100 100 100 81 63 66 82 97 100 99 101 102 101 102 100 100 101 100 100 102 101 98 98 101 102 99 98 99 99 96 93 92 90 87 82 75 70 66 62 60 61 64 65 63 65 71 71 67 65 65 64
55 52 54 58 62 59 51 48 49 50 52 55 58 65 70 66 63 63 63 62 59 55 53 54 56 56 58 63 67 71 74 76 87 99 100 101 99 78 64 71 86 97 99 97 101 103 103 103 101 100 103 102 102 104 102 99 101 102 101 100 100 101 101 95 88 86 86 83 80 75 71 67 63 64 65 64 66 70 72 76 74 69 68 69 67
54 52 59 64 61 55 51 52 54 53 51 51 54 60 64 64 62 62 63 65 64 59 54 54 59 61 61 66 74 78 75 75 84 94 99 103 95 76 71 81 90 98 99 96 98 100 101 102 102 102 103 103 102 103 102 102 103 102 101 101 101 100 101 97 88 87 88 84 80 77 72 68 66 67 67 66 70 74 76 81 82 75 72 73 71
59 61 63 63 59 55 56 57 55 51 49 47 48 51 54 60 65 66 65 66 68 66 61 59 59 61 62 67 76 80 78 84 93 94 100 104 90 75 82 92 95 98 99 96 96 98 101 101 100 102 102 100 101 101 101 103 104 103 102 101 101 100 102 99 91 90 92 88 84 80 75 72 71 72 72 74 80 81 81 85 86 81 78 76 73
65 68 63 58 57 59 58 55 51 48 46 43 42 44 49 58 65 69 68 67 69 70 67 64 60 59 60 64 71 76 80 93 102 98 100 102 84 75 87 96 98 100 99 98 97 97 100 97 95 100 102 100 100 100 100 101 102 105 105 102 101 100 101 101 98 96 96 94 90 85 82 80 79 80 81 83 87 87 85 88 90 86 82 78 74
65 62 57 54 55 57 57 52 46 44 43 41 39 41 48 56 63 70 71 68 71 75 70 65 63 62 62 65 71 78 86 99 102 98 102 99 81 77 90 97 99 101 100 100 98 98 100 96 93 99 101 99 101 101 100 101 101 99 99 100 103 104 102 101 101 101 101 100 97 92 90 88 86 87 89 87 88 90 91 95 95 88 84 83 79
60 51 48 50 52 52 52 48 44 43 41 39 38 41 48 56 63 70 73 70 73 78 75 69 67 67 68 73 78 83 91 101 101 97 101 98 83 81 92 96 95 97 100 101 99 100 102 95 93 98 97 96 101 100 98 102 98 87 81 84 89 96 102 104 103 102 102 102 101 98 96 95 92 92 93 92 93 97 98 98 96 92 91 92 89
51 43 42 46 49 48 45 43 42 41 39 37 39 42 46 53 60 69 77 78 77 79 79 75 73 72 72 77 83 85 90 100 100 95 98 99 91 87 90 92 91 92 97 99 97 100 102 96 95 98 94 92 98 99 99 101 93 79 74 73 70 76 91 101 103 103 104 103 102 102 100 100 100 98 98 98 100 102 101 98 96 97 97 96 95
42 39 41 43 45 43 41 40 40 39 38 39 41 43 46 53 62 72 81 85 82 80 80 78 78 80 78 79 84 84 87 99 101 94 97 99 91 87 88 88 88 90 93 94 94 97 100 97 98 100 93 89 95 99 100 100 90 77 73 71 66 65 72 80 88 97 103 103 102 102 101 101 103 101 100 101 102 101 101 100 98 100 101 99 99
36 38 40 41 41 39 38 37 38 38 39 41 43 46 50 58 70 80 85 85 82 80 81 80 81 87 85 82 85 83 83 97 102 95 98 96 79 75 84 85 83 87 89 91 92 93 95 98 101 101 94 90 97 100 100 101 93 79 71 70 69 67 66 70 80 92 99 102 102 102 101 101 102 101 101 103 103 101 102 103 102 102 103 99 95
36 38 39 39 37 36 36 36 37 39 41 44 47 51 57 64 75 83 85 84 82 82 84 83 85 91 90 83 83 81 79 92 100 96 99 96 76 69 81 84 82 85 85 87 89 88 91 96 99 100 97 96 100 100 99 100 95 83 76 74 72 70 69 76 87 95 99 103 103 103 102 102 102 102 103 102 100 98 98 100 101 100 100 97 90
37 38 39 38 36 35 36 36 38 42 44 47 51 57 64 72 79 82 81 80 80 82 84 85 88 93 92 83 80 79 77 85 95 96 100 99 83 75 81 84 83 83 81 84 88 85 87 94 96 96 98 100 101 100 100 100 97 91 87 83 78 74 73 79 85 88 92 97 100 102 103 102 100 99 100 97 93 92 92 94 96 99 101 97 90
39 40 39 39 37 36 37 38 42 45 46 50 56 62 70 77 79 80 81 79 79 83 86 84 86 91 91 85 81 79 77 79 87 94 100 102 93 83 84 85 83 82 79 80 86 84 82 88 92 92 94 98 100 101 100 100 100 99 96 92 89 87 85 84 82 81 83 86 88 92 94 92 91 91 92 92 91 92 94 97 100 102 101 98 92
41 41 40 40 39 38 39 42 46 48 50 53 59 67 75 78 75 76 82 81 78 83 84 80 81 84 85 84 81 78 77 78 82 87 94 102 99 91 88 88 86 83 79 77 81 81 76 75 78 83 87 93 99 102 101 99 100 101 100 98 97 96 95 93 88 84 84 81 80 83 84 83 85 86 88 91 94 96 99 103 105 102 101 99 96
42 42 41 40 40 41 42 45 48 51 53 55 60 69 75 74 69 71 79 80 76 77 77 75 77 79 79 80 79 78 78 79 80 80 84 94 99 92 89 93 92 88 84 80 78 76 72 68 68 73 78 82 90 99 101 100 100 101 102 101 100 100 100 97 93 92 91 87 85 85 84 84 86 87 88 91 95 98 101 104 105 102 100 100 98
43 42 41 40 42 44 44 47 51 53 54 55 61 71 75 72 68 69 75 76 74 73 74 74 75 75 76 78 77 78 80 80 78 74 74 82 91 92 91 97 99 93 88 87 84 77 71 68 66 68 71 72 79 91 100 103 101 100 100 101 101 102 100 94 92 95 95 92 90 89 88 88 89 90 91 93 95 98 100 101 103 103 101 100 99
43 42 40 40 43 45 47 50 53 54 54 56 62 71 75 73 71 72 74 74 73 73 73 73 73 72 74 77 76 76 81 81 77 72 69 73 81 88 91 98 103 99 92 90 88 81 74 70 67 67 69 70 75 85 92 94 92 92 97 101 101 100 98 93 91 94 96 94 93 92 91 91 92 92 93 94 95 97 98 99 102 103 102 102 102
43 41 40 40 43 47 49 53 55 54 54 58 64 68 71 71 71 70 72 73 74 74 73 72 73 72 73 76 75 74 77 80 76 70 68 70 73 77 82 88 95 98 94 89 83 77 73 71 69 68 69 70 73 78 80 80 80 83 91 97 95 93 93 92 92 96 97 96 96 95 94 94 95 94 94 95 96 96 97 97 99 101 101 102 102
43 40 40 42 45 50 53 55 56 56 56 60 66 68 69 68 66 66 70 72 72 73 74 73 73 72 71 72 72 70 72 76 75 69 66 68 69 70 72 74 79 88 93 89 79 73 71 71 70 70 69 69 71 74 73 74 77 80 84 86 86 88 90 90 92 97 98 97 97 97 96 96 97 97 96 97 96 95 96 96 97 97 98 98 99
44 41 40 43 48 53 56 57 57 57 58 62 67 68 67 64 61 60 63 67 69 71 74 76 74 73 72 71 68 67 69 72 73 69 65 65 66 66 67 68 70 75 80 79 73 70 72 73 71 70 69 69 71 72 72 73 76 78 79 80 81 85 89 90 92 96 98 98 99 100 99 98 98 98 97 97 96 94 95 96 96 96 96 96 96
45 42 41 45 52 56 57 59 62 61 61 64 67 65 60 59 60 57 54 58 64 67 70 75 75 72 72 72 69 66 67 70 69 66 63 63 63 63 64 66 67 68 70 71 70 69 71 72 69 68 69 70 70 71 71 72 74 75 76 77 80 85 88 90 92 96 99 100 102 102 100 98 98 97 96 95 94 94 94 96 96 95 94 95 94
45 43 43 49 57 59 58 62 66 66 64 66 68 62 54 55 62 61 53 53 58 61 64 71 73 69 68 71 71 67 64 66 65 62 61 62 62 62 63 64 63 63 63 63 63 64 66 66 66 69 71 71 71 72 72 71 72 72 73 76 81 84 87 90 94 97 99 102 103 103 100 97 96 95 94 94 95 95 96 97 97 95 94 95 94
46 43 46 54 61 62 61 62 65 66 65 65 65 59 53 53 59 60 55 53 55 57 59 64 69 69 67 69 69 65 62 62 62 60 60 62 62 62 63 62 61 59 58 58 60 64 65 65 67 70 70 67 66 68 69 69 71 73 73 76 81 84 86 90 94 96 99 102 103 101 99 97 95 95 95 96 96 95 96 98 99 97 95 94 93
47 45 50 58 64 65 65 63 63 65 66 65 63 59 56 57 60 60 59 56 55 57 59 61 65 67 67 68 68 64 59 58 60 61 62 64 64 63 62 62 62 61 61 64 65 65 65 66 68 68 67 65 64 65 66 68 72 74 75 76 79 82 84 87 90 94 97 100 101 100 98 97 96 96 97 97 97 96 96 98 98 97 95 94 93
48 47 52 59 64 68 69 66 63 65 66 64 62 61 61 64 65 62 60 57 56 57 59 61 63 64 64 67 70 68 62 58 60 62 63 63 64 63 62 62 62 62 64 68 69 67 67 68 70 70 70 70 71 71 70 71 72 73 73 76 79 81 83 87 90 93 96 98 100 99 99 99 98 98 98 98 97 96 96 97 98 96 95 94 93
50 50 54 58 60 63 66 64 62 65 65 62 60 60 63 68 69 66 60 57 57 59 60 60 62 63 61 61 65 67 65 60 59 60 59 59 59 58 58 59 60 61 64 66 68 70 72 73 72 73 75 76 76 76 75 76 76 75 74 75 78 82 84 87 89 92 95 97 98 99 100 100 100 99 100 100 99 97 96 96 97 96 95 95 95
62 58 55 58 60 60 63 64 63 65 64 61 59 58 60 64 66 65 62 57 55 58 60 60 62 63 62 60 60 60 60 58 58 57 57 56 55 54 54 54 55 59 65 67 68 70 74 75 73 73 74 76 77 77 77 77 79 79 78 77 77 80 83 85 87 91 95 96 97 99 100 100 101 101 101 101 100 98 97 96 96 97 96 96 95
70 62 54 58 62 61 62 65 67 66 63 60 59 59 60 60 58 57 57 57 56 57 58 59 60 62 62 61 60 58 57 56 55 55 54 54 53 52 52 52 53 58 64 68 70 70 72 74 74 74 75 76 75 75 76 77 78 79 80 80 78 78 81 83 85 89 92 95 97 99 99 100 102 102 101 101 101 99 98 97 96 97 97 95 95
62 56 53 58 64 65 64 65 66 65 62 59 58 61 64 65 60 54 51 50 52 55 57 59 61 61 60 59 59 58 57 55 54 53 53 52 51 50 49 49 51 56 60 65 69 70 70 71 72 73 74 75 74 74 74 75 76 77 79 81 80 79 78 79 82 86 89 92 95 98 98 99 101 102 101 101 101 100 99 98 98 98 97 96 95
57 54 53 56 62 66 65 63 63 63 61 59 59 61 65 67 67 64 58 52 50 50 52 55 59 60 58 57 56 56 56 54 52 51 50 49 49 50 49 47 48 52 56 61 69 71 70 70 70 70 71 72 72 73 74 74 75 76 77 78 79 79 78 79 82 85 88 90 93 95 97 98 100 102 103 102 101 100 99 99 99 100 99 98 97
58 56 56 56 60 65 65 63 63 63 60 59 60 62 63 64 65 67 69 67 65 60 54 52 55 57 57 55 55 55 54 53 51 48 48 49 50 51 51 49 48 48 50 56 64 68 69 69 69 68 69 70 70 71 73 74 75 77 79 79 80 80 80 81 84 86 88 91 92 93 95 98 100 102 103 102 101 101 100 100 100 101 100 100 98
60 59 59 56 58 62 63 62 63 62 60 60 61 61 63 64 65 66 68 70 72 69 60 53 51 52 53 55 56 54 52 51 49 47 46 49 52 56 58 59 57 56 54 56 60 62 62 64 65 65 66 68 67 68 71 73 73 75 78 80 82 82 82 83 86 87 88 91 92 93 96 98 100 102 103 102 100 100 100 100 100 100 100 100 100
65 68 66 59 57 60 62 63 63 62 61 61 60 61 64 65 65 66 66 67 69 67 61 56 53 51 49 52 55 54 50 48 47 46 46 48 52 55 60 62 63 62 60 58 60 62 60 60 63 65 66 67 67 66 68 70 72 73 75 78 80 82 82 83 86 87 89 92 93 94 97 100 101 103 104 102 101 101 101 101 100 100 100 100 99
67 68 64 58 57 59 61 62 63 62 61 60 60 63 66 65 63 64 65 65 65 63 61 60 59 57 54 53 55 54 49 45 43 43 43 45 47 50 53 56 58 61 61 59 61 65 65 62 62 64 65 65 65 66 67 69 72 74 76 77 77 78 79 82 83 86 90 93 95 97 99 101 102 104 104 102 102 102 101 101 101 101 101 101 99
67 65 61 58 59 60 60 61 62 61 61 61 62 63 64 63 62 63 64 62 61 61 62 61 59 58 58 58 58 58 54 48 45 44 43 42 44 47 51 53 55 58 60 60 61 64 65 63 62 62 63 64 65 66 69 71 73 74 75 78 80 80 80 82 84 87 91 95 97 99 101 102 103 104 104 103 103 102 101 100 101 102 102 102 101
67 64 63 61 59 59 60 62 62 61 59 60 61 63 63 61 61 61 62 61 59 59 61 60 58 56 57 59 61 62 61 55 50 49 47 45 45 47 50 53 56 58 59 59 60 62 64 63 61 61 62 63 65 67 69 71 73 73 74 78 82 82 81 83 86 89 92 97 100 102 103 104 104 105 104 103 103 103 101 100 102 103 103 102 102
68 64 63 62 60 59 61 62 61 59 58 58 60 61 60 59 59 60 60 59 58 57 58 58 55 54 55 57 59 62 63 58 53 51 49 48 49 50 50 52 55 56 57 57 59 62 63 63 61 61 60 60 62 65 67 70 73 75 77 79 82 83 82 82 86 90 93 98 102 104 105 105 105 105 105 104 103 103 103 102 102 103 103 103 103
70 65 63 62 61 61 61 61 59 57 57 58 58 58 58 57 58 58 57 55 55 56 56 54 51 51 52 54 56 58 58 55 53 52 51 51 52 51 50 50 51 53 55 57 58 61 64 62 60 59 60 59 61 64 67 69 72 76 80 83 85 87 86 85 86 90 95 100 104 106 105 104 105 106 105 104 103 104 105 104 101 101 102 103 103
68 65 63 61 60 60 60 60 58 56 56 55 55 55 58 58 57 55 53 51 51 54 55 52 50 50 49 49 52 54 53 52 53 54 53 52 51 49 47 47 49 50 52 53 54 58 61 60 58 57 58 58 61 65 68 70 74 78 80 83 86 88 90 90 91 94 99 103 105 104 103 104 107 107 104 102 102 104 105 103 100 100 101 102 102
68 65 61 59 59 59 59 59 57 56 55 54 53 55 57 57 54 52 52 50 50 52 52 51 51 50 49 47 48 50 50 51 53 54 52 51 49 46 45 45 47 47 47 48 49 53 57 57 56 54 53 54 57 61 65 68 73 78 81 85 88 88 89 90 93 98 102 104 103 101 101 103 105 104 102 101 102 102 102 101 100 100 100 101 101
67 64 61 59 59 60 61 59 57 55 53 53 53 53 54 53 53 52 52 51 50 50 50 50 50 50 49 47 47 48 50 51 51 51 50 48 46 45 44 45 46 46 45 44 46 49 53 55 56 56 54 53 55 59 61 64 70 76 81 85 88 87 87 89 95 100 103 103 101 100 102 102 102 101 101 101 101 101 100 100 100 100 100 100 100
66 63 61 60 60 60 60 58 55 53 51 50 50 50 50 51 52 52 51 51 50 50 49 48 49 49 49 48 48 49 50 51 50 48 47 46 44 43 43 44 44 44 44 44 45 48 50 53 56 57 56 55 55 57 59 62 66 71 75 79 84 85 87 91 98 102 104 104 102 101 103 102 101 101 101 100 100 100 100 100 100 100 100 100 100
64 61 60 59 59 59 58 56 54 52 49 49 49 48 48 49 49 48 49 49 48 48 48 47 47 48 48 49 50 50 49 49 48 46 44 43 42 41 42 42 43 43 43 43 44 46 48 51 54 56 56 57 57 58 60 61 64 68 70 75 81 85 88 94 100 103 104 103 101 101 102 102 101 101 100 100 100 100 100 100 100 100 100 100 100
60 59 59 59 59 58 57 55 54 52 49 48 48 47 46 46 46 46 46 46 46 46 47 46 46 48 48 48 48 48 47 46 44 42 41 41 40 40 41 42 42 43 43 42 43 45 48 50 53 55 56 58 59 60 61 63 65 67 70 75 81 88 93 99 103 103 102 101 101 101 101 100 100 100 100 100 100 100 100 100 100 100 100 100 100
56 57 59 59 57 57 56 55 54 51 48 46 45 44 44 46 46 45 45 45 45 45 46 46 46 48 48 47 46 45 44 43 41 39 39 39 38 39 40 41 41 43 45 44 44 46 48 50 52 55 57 59 62 64 68 71 73 77 81 86 91 97 100 102 102 101 101 101 101 100 100 100 100 100 100 100 100 100 100 100 100 100 100 100 100
54 55 56 56 55 56 56 55 54 52 48 45 44 43 43 44 44 43 44 45 45 44 45 46 47 48 48 47 45 43 42 40 39 38 37 37 37 38 40 41 41 43 45 46 46 47 49 51 54 58 63 68 73 77 82 86 88 91 95 99 102 103 102 101 100 100 100 100 100 100 100 100 100 100 100 100 100 100 100 100 100 100 100 100 100
53 53 54 54 54 55 55 54 53 50 46 44 43 42 42 42 42 42 44 45 44 44 45 46 46 47 46 44 43 42 40 39 38 37 36 36 37 39 41 42 44 45 47 48 49 51 54 60 66 71 76 82 86 88 90 91 92 94 98 102 104 103 101 101 100 100 100 100 100 100 100 100 100 100 100 100 100 100 100 100 100 100 100 100 100
Wind_Speed
21 20 20 20 21 22 22 22 22 21 21 22 21 20 19 18 19 20 23 25 25 24 24 25 26 25 22 21 21 22 21 21 21 23 27 30 33 33 32 31 29 28 27 27 27 26 27 27 26 27 26 26 25 24 24 25 27 25 23 22 22 21 22 18 11 11 18 23 25 26 27 27 27 27 27 26 25 24 25 27 26 24 25 27 29
19 19 19 20 21 22 22 23 23 22 22 23 22 21 19 18 18 19 22 24 25 25 25 25 25 25 24 23 22 22 22 22 23 24 25 29 32 34 33 30 28 27 27 28 27 26 26 26 26 27 26 26 26 25 24 26 27 25 24 23 23 23 23 21 16 13 16 22 26 26 27 27 26 26 26 25 25 26 28 28 25 23 26 28 29
18 19 20 21 21 22 22 22 23 22 22 22 21 21 19 18 18 19 21 23 26 26 25 25 25 25 25 25 25 24 24 24 25 27 26 27 31 34 33 30 27 27 27 27 27 26 26 25 25 26 26 26 26 25 25 27 27 25 24 24 23 24 24 23 20 17 16 20 25 25 26 26 25 25 26 25 25 27 29 28 24 25 28 29 29
18 19 21 21 21 22 22 22 22 22 22 20 20 20 20 19 18 19 21 24 26 26 25 25 25 26 27 27 27 26 26 25 27 30 29 26 28 33 32 29 27 25 26 27 26 26 26 25 25 25 25 26 26 26 26 28 28 25 24 25 24 24 25 24 22 21 19 19 22 25 26 25 25 26 26 26 26 28 27 25 25 27 29 29 29
18 20 21 21 21 21 22 22 22 21 20 19 19 20 20 21 20 21 22 24 26 26 26 26 27 27 27 27 28 27 26 27 28 32 31 26 27 32 30 27 26 25 26 27 25 25 25 25 24 24 24 25 26 26 27 29 29 26 25 26 26 25 25 24 23 23 21 20 22 25 25 25 25 25 25 28 29 29 26 25 27 29 30 31 30
19 19 20 21 21 21 22 21 20 20 19 19 19 19 20 21 22 22 23 24 26 27 27 27 27 28 28 27 28 27 27 28 29 33 32 26 27 31 28 26 26 25 26 27 25 25 25 25 24 24 24 26 26 26 28 30 29 27 26 27 28 27 24 23 23 23 22 22 22 23 24 25 25 23 25 30 30 27 26 27 29 30 31 32 32
18 19 19 20 20 20 20 19 19 19 19 19 19 18 19 21 22 23 23 23 25 26 28 28 27 28 28 28 28 27 28 28 29 34 32 25 27 30 26 26 27 25 26 28 26 25 26 26 25 24 24 25 26 27 28 30 29 26 27 28 28 27 24 21 23 23 22 21 21 21 22 23 23 23 26 29 27 25 27 26 27 31 33 32 32
16 17 18 19 19 19 18 17 18 19 19 20 19 18 19 20 21 22 23 23 24 25 27 28 29 29 29 29 28 27 29 30 30 35 33 26 28 29 25 25 27 25 27 28 27 26 27 27 25 23 24 25 25 26 28 29 28 27 28 28 27 26 23 20 21 22 21 20 20 20 21 21 21 23 26 26 23 23 27 25 24 29 32 33 32
14 15 17 18 17 16 16 17 18 19 20 20 20 19 19 19 21 22 22 22 22 24 26 28 29 30 29 29 28 28 30 30 31 34 32 28 30 29 25 26 26 25 28 29 27 27 28 29 26 23 24 25 24 26 28 28 28 27 28 28 26 25 23 19 20 21 19 18 18 19 19 18 19 22 23 23 21 23 28 26 23 26 31 33 33
14 15 17 16 15 15 16 18 19 20 20 20 20 20 19 19 20 21 22 22 21 22 25 28 29 30 30 29 29 29 30 30 31 33 32 30 30 28 26 27 26 25 27 28 28 28 27 29 28 24 26 27 25 27 30 29 29 28 28 27 25 25 24 20 19 19 18 16 17 18 17 16 19 22 22 23 25 25 27 24 22 27 29 27 28
14 15 16 15 14 15 16 18 20 20 20 20 20 20 20 20 20 20 20 21 21 21 23 27 29 30 30 30 30 29 29 30 30 32 33 31 28 27 27 27 26 26 26 27 28 27 27 30 29 26 30 30 27 30 32 30 31 31 29 27 24 23 23 21 20 21 19 17 17 18 17 17 21 24 24 25 26 25 24 23 23 25 23 17 17
14 15 15 14 15 16 17 19 19 19 19 20 20 19 19 19 18 18 18 19 20 21 22 25 27 29 31 31 30 30 29 30 30 32 33 31 27 27 27 27 27 27 26 26 28 26 26 30 29 27 31 31 29 32 33 32 32 32 30 27 25 23 22 21 21 23 22 20 20 20 20 21 24 26 26 26 27 25 24 23 23 23 22 17 13
14 14 14 14 15 16 17 18 19 19 19 18 18 18 18 17 17 17 16 17 20 21 21 23 24 27 30 31 30 30 30 29 30 31 33 31 28 27 27 27 27 27 26 26 27 26 26 29 29 28 31 32 31 32 33 33 34 33 31 29 27 25 24 22 22 24 24 24 23 23 25 26 27 28 28 27 27 25 23 24 24 23 22 21 20
14 14 14 14 16 16 17 18 19 19 18 17 17 17 17 17 16 16 16 18 20 21 21 22 22 24 28 29 29 30 31 29 29 31 32 30 29 29 28 28 28 28 27 27 26 26 26 28 28 29 32 33 31 31 32 33 34 34 33 31 30 29 28 27 27 27 27 26 25 27 29 30 29 29 29 27 25 23 23 24 25 25 25 26 28
14 13 14 15 16 16 17 17 18 17 16 16 16 16 16 16 15 15 17 18 19 19 19 21 21 22 25 28 29 30 31 30 28 30 30 29 30 31 29 28 30 29 28 27 27 26 26 27 27 28 31 32 31 30 31 31 33 35 34 33 33 32 30 30 29 29 28 26 26 28 30 29 28 28 27 26 24 24 25 26 26 26 28 28 29
13 14 14 15 15 16 16 17 17 16 15 15 15 15 16 16 14 15 18 18 18 18 18 19 21 21 23 26 28 29 30 30 28 29 29 29 31 32 31 30 31 31 30 28 27 27 26 26 26 27 30 32 31 30 29 30 32 34 34 33 33 33 32 32 31 29 28 26 25 26 26 26 26 25 26 26 25 26 27 27 26 25 23 22 22
13 14 14 14 14 15 15 15 15 15 14 13 14 15 16 14 13 15 18 19 18 18 18 19 20 20 21 24 26 28 29 29 29 28 28 28 30 32 31 31 31 32 31 29 28 28 27 26 26 27 30 31 31 30 29 29 31 33 33 33 34 34 35 36 34 32 30 28 26 26 25 26 26 25 26 25 24 25 26 24 24 24 20 14 11
13 13 13 14 14 14 14 14 13 13 12 12 12 14 14 13 13 15 17 18 19 19 18 19 20 19 19 22 24 25 26 27 29 29 28 27 29 30 30 30 31 32 32 30 28 28 28 28 27 28 29 30 30 30 29 29 31 32 32 32 33 35 37 39 38 36 34 33 31 29 29 28 27 26 26 24 23 23 23 22 24 24 19 13 10
12 12 12 13 13 13 13 12 12 12 11 11 11 12 13 12 14 16 16 17 19 19 19 19 19 18 18 19 21 23 24 26 28 29 28 26 27 29 29 29 30 32 32 31 30 30 30 30 29 30 30 30 30 30 29 29 29 30 30 30 31 34 36 38 37 36 36 36 34 33 32 30 29 28 27 26 24 23 22 23 24 22 19 17 16
11 10 11 11 11 11 11 11 11 11 10 10 11 12 12 13 15 17 16 16 17 18 18 18 19 18 17 17 19 21 22 24 27 29 28 27 26 27 28 28 29 31 31 31 31 31 32 31 31 31 31 31 30 30 29 28 27 28 29 29 30 31 34 35 35 34 34 34 34 33 32 32 31 30 30 29 28 27 26 26 25 23 20 20 20
9 9 10 10 10 10 10 10 10 10 10 10 13 14 13 14 16 16 15 15 16 17 17 18 18 18 17 16 19 21 20 22 26 28 27 27 27 27 28 27 26 29 30 30 29 30 32 32 32 31 31 31 31 30 29 28 27 28 28 27 27 28 29 33 34 33 33 33 32 32 32 32 33 32 32 31 31 31 31 29 27 24 22 21 22
8 8 9 9 9 9 9 10 10 10 10 11 13 14 14 14 14 14 14 14 15 15 16 17 18 19 18 18 19 21 20 21 24 27 27 27 27 27 28 26 25 26 28 29 29 29 30 31 31 31 31 31 31 30 29 29 29 29 28 26 26 27 28 31 33 33 32 32 31 31 32 32 33 34 34 34 34 34 33 31 28 26 23 23 23
7 8 9 9 8 8 8 9 10 10 11 13 13 13 14 14 14 13 14 14 14 15 16 18 19 20 20 20 20 21 21 21 24 26 27 27 27 27 27 27 27 26 26 26 27 28 29 29 29 30 31 31 30 29 29 29 29 29 28 28 28 28 29 31 32 32 32 31 30 31 31 32 33 34 35 36 36 36 34 31 29 27 25 24 23
7 8 8 8 7 7 8 10 10 10 12 13 12 11 12 13 13 14 14 14 15 15 16 17 19 21 21 21 22 23 23 22 24 26 27 27 27 27 27 28 28 28 27 25 25 26 28 28 28 29 30 30 29 28 28 29 28 28 29 29 30 29 29 31 32 31 31 30 30 30 31 31 32 33 35 36 36 35 33 31 29 27 25 25 24
8 7 7 8 7 7 8 10 10 10 11 12 12 11 11 13 13 14 14 14 15 16 16 16 18 20 21 21 23 24 24 24 25 27 28 27 28 28 28 28 28 29 28 26 25 25 26 26 27 27 29 29 29 28 29 29 28 28 29 30 30 29 29 30 31 30 29 29 29 30 31 32 33 33 34 35 34 34 34 34 32 30 28 27 25
8 7 7 7 7 7 8 10 10 9 10 11 11 11 11 12 12 13 14 15 15 15 16 16 17 19 21 22 23 25 25 25 26 27 28 28 28 29 29 28 28 28 27 26 25 25 25 26 27 27 28 28 27 27 28 29 29 30 31 30 30 29 29 29 29 29 28 29 29 30 31 33 34 34 34 34 34 34 34 34 34 32 31 30 27
8 8 7 7 7 8 8 9 9 8 8 10 11 11 12 12 11 12 14 15 15 15 16 16 17 20 22 23 24 25 26 26 27 28 29 29 30 29 29 28 28 28 27 27 27 27 26 27 27 27 27 28 28 28 29 30 30 31 31 31 30 29 29 28 27 26 27 29 30 31 32 33 33 34 35 34 33 33 34 33 31 31 32 30 26
8 8 8 7 6 7 7 8 8 8 7 8 9 10 11 12 12 12 13 14 15 15 16 16 17 19 21 22 24 26 26 26 26 27 28 28 29 29 29 28 27 27 28 28 28 28 28 27 28 28 28 30 31 31 31 32 31 31 32 32 31 30 30 30 28 28 29 29 30 31 32 33 33 33 34 33 33 34 34 33 30 30 31 28 24
9 8 7 6 7 7 6 6 7 7 7 7 8 8 9 10 12 12 12 13 13 14 15 15 16 18 19 20 21 24 26 26 25 25 25 25 25 26 27 26 25 25 26 26 27 28 29 28 28 29 30 31 31 32 33 33 33 33 33 32 31 31 31 31 30 31 31 31 31 31 32 32 33 33 33 33 33 34 34 32 31 30 29 27 22
8 7 6 6 6 7 6 5 6 6 6 7 7 8 8 8 10 11 12 11 11 13 14 15 16 17 18 18 18 19 22 24 24 23 23 22 22 23 23 22 21 22 23 24 25 26 27 28 28 28 29 29 29 30 32 32 33 34 34 34 32 31 31 31 31 32 32 31 31 31 31 31 32 33 32 32 33 34 33 31 30 29 28 26 23
7 5 6 6 6 7 6 5 5 6 6 6 7 8 8 8 7 8 10 10 10 11 12 13 14 15 17 18 18 18 20 21 22 22 22 22 22 22 22 20 19 20 21 23 25 25 26 27 27 27 28 28 28 29 30 31 31 32 34 35 33 32 31 32 33 33 32 31 31 31 30 30 31 31 31 31 32 33 33 31 30 29 27 25 23
9 7 7 7 6 6 5 5 4 4 5 6 7 7 8 9 8 6 7 8 10 10 11 12 14 14 15 16 18 20 20 21 21 21 21 21 21 21 21 20 19 20 21 21 23 25 25 26 27 27 28 28 29 29 30 30 30 31 32 33 34 33 32 33 32 32 30 30 30 30 30 30 31 30 30 30 30 31 32 31 30 29 28 26 24
11 10 9 8 6 5 4 4 3 3 4 5 6 7 8 9 10 9 8 8 8 9 10 12 14 15 15 15 16 19 21 21 21 20 20 20 21 22 22 21 21 21 21 21 22 24 26 27 27 27 28 28 29 30 30 30 30 31 30 30 32 33 33 33 32 31 30 30 30 29 29 30 31 30 30 30 29 29 29 29 29 29 28 26 26
11 10 9 8 7 5 3 2 2 2 3 4 5 6 6 8 10 11 12 12 11 10 11 12 13 15 16 15 16 18 20 20 20 20 19 20 21 22 23 24 23 22 22 22 22 24 26 27 28 28 28 29 29 30 31 31 31 31 32 31 32 33 33 33 31 31 31 31 30 29 29 30 30 30 30 30 29 28 28 28 29 28 27 26 27
11 10 8 7 7 5 4 3 2 1 1 2 3 4 5 7 8 10 12 14 14 16 16 15 14 15 15 16 17 19 20 20 20 19 19 20 22 23 25 27 27 26 26 25 24 24 26 27 28 28 29 29 30 30 31 31 31 31 32 32 33 33 33 33 32 31 31 31 29 29 29 30 29 29 28 28 28 28 27 28 28 28 27 26 26
11 9 8 7 7 6 4 3 2 1 0 2 2 3 4 6 8 9 10 12 14 17 18 17 17 16 15 16 18 20 21 20 20 20 20 20 22 23 24 26 28 28 28 27 26 26 27 27 27 28 29 30 31 31 31 32 32 32 32 32 33 33 33 32 31 31 31 30 29 29 29 29 29 29 28 28 27 26 26 27 27 27 27 27 26
12 9 8 8 7 6 5 4 2 2 1 1 2 3 4 6 7 8 10 12 13 16 18 19 19 19 18 18 20 21 22 21 20 21 21 21 22 22 23 24 25 26 27 27 27 28 29 28 28 29 30 30 31 32 32 32 32 33 33 33 33 33 32 31 31 30 30 30 30 29 29 29 28 28 27 27 27 27 27 27 27 27 27 28 26
12 10 9 9 8 7 6 5 4 3 2 2 2 4 5 6 7 9 10 12 14 15 17 18 20 21 21 21 22 23 24 23 23 23 23 23 23 24 24 25 25 26 27 28 28 28 30 30 30 30 31 31 31 31 32 33 33 33 34 34 34 33 33 32 31 30 30 30 30 30 29 29 28 28 27 26 27 27 27 28 28 27 27 28 26
11 10 9 9 8 8 7 5 5 4 3 3 3 4 6 7 8 9 11 13 14 15 17 19 19 20 21 22 23 24 26 27 27 27 27 26 25 25 26 26 27 27 28 29 29 29 30 31 32 31 31 31 31 31 32 32 33 33 33 34 34 34 33 32 32 31 30 30 30 30 30 29 29 29 28 26 25 27 27 27 27 26 26 26 26
11 11 10 10 9 9 7 6 6 6 5 4 4 5 7 8 9 10 12 14 15 16 17 19 20 20 21 21 22 24 27 28 28 28 28 28 27 27 27 27 28 29 29 30 30 30 31 32 32 32 32 32 32 32 32 32 33 33 33 33 33 33 33 32 32 31 31 31 31 30 29 30 30 31 29 27 26 26 27 27 27 26 26 25 26
12 11 11 10 10 9 8 8 8 7 6 5 5 7 8 8 10 11 13 14 16 17 18 20 21 21 21 21 22 23 25 27 28 28 28 28 29 29 29 29 29 29 30 30 30 30 31 32 33 33 33 33 33 32 33 33 33 33 34 33 32 33 33 33 32 32 32 31 31 30 30 31 31 30 30 30 29 28 27 27 27 27 26 25 25
13 12 11 11 11 10 10 10 9 8 7 7 7 8 9 10 11 13 14 15 16 17 19 21 22 22 22 22 23 23 25 26 27 28 28 29 29 30 30 29 29 29 30 30 30 31 32 33 33 33 33 33 33 33 33 33 33 33 33 33 33 33 34 34 33 32 32 31 31 31 31 32 32 30 30 30 30 29 29 29 27 27 26 26 26
14 13 12 12 12 12 11 11 11 10 9 9 9 9 10 12 13 14 15 16 16 18 20 22 23 23 23 23 23 24 25 26 27 28 29 29 30 30 30 30 30 30 30 31 30 31 32 33 34 34 34 34 33 33 33 33 33 33 33 33 34 34 34 34 34 32 31 31 32 32 32 33 33 32 30 30 29 30 30 29 28 27 27 27 27
15 14 13 13 12 12 12 12 12 11 11 10 11 11 12 13 14 14 15 17 17 19 21 22 23 25 25 25 25 25 26 26 27 28 29 30 30 31 31 31 31 31 31 31 31 31 32 33 34 35 35 34 34 33 33 33 32 32 33 33 34 34 34 33 33 31 31 31 32 33 34 35 34 32 30 30 30 30 30 29 28 28 28 27 26
16 15 14 13 13 13 13 13 13 13 12 12 12 13 13 14 15 15 17 18 19 20 21 22 23 24 25 26 26 26 26 27 28 29 30 30 31 31 31 31 32 32 32 32 32 32 32 33 34 35 36 36 35 34 34 34 33 33 32 32 33 33 33 32 31 30 29 29 31 34 36 36 34 31 31 30 30 29 29 29 28 28 27 26 26
16 15 14 14 14 14 14 14 14 14 13 13 13 14 14 15 16 17 17 19 20 21 22 23 23 24 25 26 27 27 27 28 29 30 31 31 32 32 32 32 33 33 34 34 34 34 34 34 35 36 37 37 37 36 36 35 34 34 33 32 32 32 31 30 28 28 28 29 32 35 36 35 33 32 31 30 29 28 28 29 28 27 26 26 25
17 16 15 15 15 15 16 15 15 15 14 13 14 15 15 15 16 17 18 19 20 21 22 23 23 24 25 26 27 28 28 29 30 31 32 32 32 33 33 34 34 35 35 35 35 35 35 35 36 36 37 37 37 37 37 36 35 35 34 32 31 31 30 28 27 27 28 29 32 34 35 34 33 32 31 30 29 29 29 29 28 26 26 26 25
17 16 15 15 16 16 17 17 16 16 15 14 14 15 15 16 17 18 18 19 20 21 22 23 24 25 26 27 27 28 29 30 31 32 32 33 33 34 34 35 36 36 36 36 36 36 36 37 37 37 37 38 38 38 38 37 36 35 34 32 31 30 29 27 26 27 29 30 31 32 32 31 32 32 31 30 30 29 29 29 28 27 26 25 25
17 16 16 16 17 17 17 18 17 17 15 14 15 15 16 17 18 18 19 20 21 21 23 24 25 26 27 28 28 29 30 31 32 33 33 34 34 35 35 36 37 37 38 38 38 38 38 38 38 38 38 38 38 38 38 37 36 35 34 32 30 29 27 26 26 27 28 28 28 29 30 30 31 31 32 31 30 29 28 28 27 26 26 25 25
17 17 17 17 18 18 18 18 18 17 16 15 15 16 16 17 18 19 19 20 22 22 23 24 26 27 28 29 29 30 31 32 33 34 34 35 35 36 37 38 38 38 39 39 39 39 39 39 39 39 39 39 38 38 38 37 36 34 33 31 30 28 27 26 26 25 25 25 27 29 29 30 31 32 32 30 29 28 27 27 26 26 26 25 25
18 17 17 17 18 18 18 19 19 17 16 16 16 16 17 18 19 19 20 21 22 23 24 25 27 28 29 30 31 32 33 34 34 35 36 36 37 38 38 39 39 40 40 40 40 40 40 40 40 40 40 40 39 38 38 36 34 32 31 29 28 27 25 24 24 23 24 26 28 29 30 30 31 31 31 29 28 27 27 27 26 25 25 24 23
Wind_Direction
51 47 45 48 47 46 46 45 44 41 42 45 43 37 32 28 24 24 28 28 27 26 27 26 22 22 25 22 22 23 17 10 2 357 357 357 360 2 1 1 2 2 2 2 2 0 357 358 358 359 359 358 356 355 352 350 350 348 344 341 337 334 332 326 314 314 321 324 324 326 329 329 326 327 327 328 334 338 340 339 335 335 337 335 334
50 50 50 51 49 48 49 47 46 45 46 47 44 38 34 31 25 23 26 26 26 27 27 28 25 22 24 23 21 21 19 16 9 2 357 354 357 1 1 1 2 2 3 0 360 360 358 357 357 358 359 358 356 355 352 350 348 344 342 340 334 332 332 327 320 317 318 323 326 325 328 329 324 326 331 332 337 343 342 338 336 338 341 338 335
53 55 55 52 50 50 50 48 48 48 47 46 44 39 37 36 30 24 25 26 27 28 28 28 25 23 23 22 19 17 16 16 12 7 360 352 355 360 0 1 2 3 3 360 358 358 357 356 356 356 358 356 355 355 352 349 347 342 340 340 335 332 332 330 323 315 311 317 322 325 327 328 326 330 334 334 340 344 340 335 336 340 341 338 335
55 55 55 53 51 50 48 47 48 48 46 44 44 42 39 38 35 28 27 29 29 28 29 28 25 23 23 22 20 16 14 14 11 8 2 353 354 359 360 1 4 4 3 360 358 358 357 356 355 355 356 356 355 354 352 350 347 343 341 341 339 334 332 331 325 316 311 313 322 327 327 328 331 333 335 338 343 342 337 336 340 342 338 335 334
56 55 55 53 50 48 47 47 48 47 46 42 41 42 39 37 37 33 31 31 29 27 27 28 26 24 23 22 20 16 15 15 11 7 3 356 356 359 359 2 6 6 3 360 0 1 358 355 355 356 356 355 353 351 351 350 346 344 343 342 339 335 332 333 331 326 323 321 324 328 330 332 333 333 341 346 344 340 339 341 342 339 335 332 331
55 56 55 52 49 47 46 47 47 45 44 42 40 42 40 37 37 36 33 31 28 26 26 27 26 24 23 22 20 16 16 17 13 7 2 357 357 359 359 2 6 5 2 1 2 2 359 357 356 357 357 354 352 351 350 349 346 344 344 342 339 336 332 336 338 335 331 328 326 328 332 334 334 337 346 348 342 339 340 339 336 334 332 330 328
53 54 55 52 49 47 46 45 45 45 44 42 41 42 42 40 38 35 32 30 27 25 25 26 26 24 23 23 21 16 16 18 15 7 2 358 358 360 360 2 5 4 0 0 3 2 0 359 359 359 359 355 352 352 351 347 345 345 345 343 341 337 333 338 342 337 333 332 330 330 332 334 336 340 343 342 337 338 340 336 331 331 331 329 327
53 52 53 53 50 47 46 44 46 47 46 44 42 42 44 43 39 33 30 29 27 24 23 24 25 24 24 24 22 17 15 17 12 4 2 360 360 2 3 2 2 1 358 359 2 3 1 1 2 1 358 355 354 353 351 348 346 346 345 344 343 338 334 341 346 339 335 334 331 332 333 334 337 338 338 338 337 336 336 333 326 326 328 326 324
54 52 52 52 51 47 45 46 47 48 46 45 43 42 42 42 39 33 27 25 25 23 22 24 25 24 25 25 23 19 16 15 8 4 4 1 360 4 7 4 2 359 356 357 360 2 1 1 4 2 355 354 354 352 351 350 349 346 344 345 345 340 336 343 348 341 335 334 332 333 334 333 336 337 334 335 335 329 329 328 322 323 325 322 321
55 54 54 53 51 49 47 47 47 46 46 44 42 41 41 40 38 32 25 22 22 22 22 24 25 24 24 25 23 19 17 14 7 8 10 4 2 7 10 5 3 359 355 356 358 359 358 359 2 0 356 356 355 353 353 352 350 349 348 347 347 343 338 344 350 342 334 333 332 332 331 328 332 333 328 326 327 324 324 325 323 324 325 321 320
59 58 57 55 52 51 49 48 47 46 46 44 42 41 40 40 37 31 24 19 20 23 22 22 23 23 23 24 22 18 17 13 7 10 13 8 6 10 10 5 3 0 358 357 356 356 355 356 359 358 357 356 355 356 357 353 351 354 355 354 354 351 345 344 347 343 337 332 329 329 327 322 324 326 322 321 323 322 322 325 325 324 324 321 319
64 61 60 56 54 51 49 48 47 46 46 44 42 42 41 39 37 30 23 17 18 23 22 19 21 21 21 23 21 18 17 13 8 11 14 11 9 13 11 6 3 2 1 358 357 357 354 354 356 356 354 356 356 357 357 352 351 355 358 358 360 0 354 346 342 341 337 331 328 326 324 320 320 321 320 320 321 320 322 325 326 323 319 315 309
67 63 61 57 54 52 49 49 48 46 45 43 42 43 42 39 35 29 23 18 18 20 19 17 17 18 18 19 19 17 17 14 9 11 15 12 11 15 13 8 6 5 4 1 358 358 355 353 354 353 352 355 358 357 354 350 349 353 357 358 360 1 358 351 345 339 335 330 325 321 321 320 315 314 317 320 320 321 325 326 325 323 317 312 308
68 63 60 56 54 52 50 50 49 47 45 44 43 44 41 37 33 28 24 21 17 16 15 13 15 16 14 15 17 16 17 14 9 10 14 11 12 18 16 10 10 9 8 5 1 359 356 354 353 350 350 355 357 355 352 349 347 349 352 354 355 355 355 352 347 341 337 333 325 319 320 319 313 313 319 324 324 325 326 323 321 320 314 310 310
68 62 58 55 53 53 51 51 50 47 45 45 45 44 40 35 30 29 27 21 14 12 12 11 13 15 11 11 15 16 16 15 10 9 12 9 10 17 16 11 11 11 10 8 4 2 359 356 354 350 350 355 356 352 350 348 345 346 349 350 352 352 352 351 347 342 339 335 327 322 321 321 319 320 325 328 328 326 323 318 316 316 312 312 314
67 61 57 54 53 53 51 51 50 47 45 45 44 43 39 32 28 31 28 20 14 14 14 12 12 12 8 8 11 13 14 15 12 9 10 6 7 13 13 10 9 9 9 9 5 3 2 358 355 351 351 354 353 349 349 347 346 347 348 349 350 351 353 354 352 350 347 339 331 327 324 324 327 327 328 330 328 326 324 319 319 321 318 315 315
65 59 57 54 53 53 52 50 48 46 45 44 43 42 37 29 29 35 28 18 15 16 14 14 14 10 5 4 6 8 11 14 13 10 9 5 5 8 9 8 7 6 7 7 4 2 2 1 357 353 353 355 352 348 349 348 347 347 348 347 347 348 350 353 353 353 352 346 340 338 335 335 335 332 332 333 330 330 330 327 328 329 323 316 312
64 60 57 55 54 54 53 51 48 46 43 41 42 42 37 32 36 40 31 18 16 17 16 15 15 12 6 3 2 2 6 12 12 10 10 8 5 5 6 5 4 3 3 4 3 2 1 3 2 358 355 355 353 349 349 349 348 347 347 346 345 345 347 348 348 349 350 350 350 350 348 346 343 339 338 337 334 336 336 331 330 328 320 314 312
65 60 57 56 56 55 55 52 49 47 43 42 45 44 38 37 41 41 32 21 17 18 19 16 14 14 11 4 359 359 3 9 10 9 12 12 6 5 5 3 0 359 359 360 0 0 1 2 4 3 359 358 357 353 349 350 349 347 347 346 343 342 343 344 344 345 346 347 350 350 349 349 347 344 343 342 340 340 337 331 330 326 316 312 313
67 62 60 60 58 57 58 55 51 48 45 45 49 47 40 40 40 34 27 21 18 16 17 15 12 13 12 4 358 359 2 5 6 8 13 15 11 6 5 3 358 354 354 356 356 356 358 360 2 4 2 0 360 356 350 348 347 347 350 348 341 338 338 341 344 345 343 344 346 346 346 348 348 347 346 345 343 342 339 335 332 324 315 310 310
72 67 65 65 62 61 62 59 53 48 46 52 55 52 46 41 36 28 22 21 18 14 13 13 10 10 11 5 360 2 4 2 2 6 12 16 15 9 6 4 358 351 351 353 353 352 353 354 358 2 2 0 360 357 352 351 351 351 349 344 338 336 337 340 344 345 345 345 345 345 346 347 347 348 347 345 344 343 341 339 336 329 321 314 311
78 74 72 69 66 66 66 64 57 50 52 60 60 54 49 44 36 29 25 22 19 14 12 11 8 7 10 7 3 4 7 2 359 3 9 14 16 12 8 6 1 355 352 352 352 351 350 351 355 359 360 360 359 357 356 356 356 354 350 343 340 341 342 343 345 345 345 345 345 345 347 347 346 346 346 344 344 343 342 341 339 335 328 322 317
87 83 80 74 70 72 72 69 63 57 59 63 59 53 49 45 37 30 27 24 20 16 13 10 7 5 6 7 5 6 8 4 359 1 6 12 14 13 11 8 5 360 354 351 351 351 351 352 355 357 359 359 358 357 357 357 355 354 353 350 347 346 345 346 347 347 346 346 345 344 345 346 345 343 343 342 341 342 342 341 340 338 334 331 327
97 90 88 83 79 80 79 73 65 61 62 60 53 51 52 48 39 31 29 27 21 17 14 9 5 2 1 2 4 4 5 4 359 359 4 8 11 11 10 9 6 2 358 355 353 351 351 352 354 357 358 356 355 355 356 356 356 354 354 354 353 351 348 347 348 348 347 346 345 343 342 343 342 340 339 339 338 340 342 341 341 342 341 338 335
107 104 101 95 88 85 84 77 65 60 61 57 47 47 53 50 38 28 27 28 22 17 14 9 2 358 357 356 358 360 1 1 358 359 3 6 8 9 7 6 6 2 359 357 355 352 353 355 356 358 356 353 354 355 355 356 357 356 355 356 356 354 351 348 348 348 347 345 343 340 339 340 340 339 339 340 341 343 344 343 344 346 346 344 342
119 118 115 105 92 82 82 78 69 61 63 60 50 45 49 48 37 23 21 24 22 15 12 8 359 356 355 355 354 355 358 359 358 358 1 3 5 5 4 3 4 2 360 360 359 358 359 1 0 357 352 351 353 354 353 354 356 356 357 357 356 355 352 349 347 347 345 342 340 338 337 338 339 340 342 344 345 346 347 344 344 346 348 347 345
128 130 124 113 97 84 78 77 73 66 64 64 58 51 48 43 34 22 17 17 16 11 8 5 358 354 353 353 351 352 356 358 358 358 359 359 359 359 359 359 0 1 0 1 1 360 1 2 359 354 350 352 356 356 354 355 355 354 354 355 355 354 353 350 348 346 343 341 339 338 337 339 341 342 344 345 345 347 349 347 343 344 347 346 344
134 135 127 117 104 88 76 71 70 64 59 60 58 51 46 38 30 22 15 10 8 5 3 2 358 353 351 350 348 349 353 357 357 356 354 353 352 352 352 353 354 356 357 357 356 357 360 359 356 353 353 354 356 356 355 354 353 352 352 353 353 353 353 352 351 347 345 343 341 340 340 341 342 343 344 344 345 347 349 349 346 344 346 347 346
140 139 131 124 114 97 80 73 71 62 52 55 54 46 37 27 21 18 12 7 4 1 359 360 358 354 353 352 347 342 345 351 354 352 350 349 348 347 346 347 348 350 353 353 353 355 357 355 352 352 352 352 352 351 351 350 350 349 350 351 351 351 352 352 350 347 346 345 343 341 341 341 341 343 343 343 344 346 349 349 348 346 347 348 348
137 136 131 127 122 109 96 86 78 65 51 50 51 44 33 18 9 6 5 3 1 359 357 357 357 354 353 354 349 340 339 344 348 349 348 349 350 347 346 345 345 347 351 354 354 354 353 349 348 349 348 346 346 346 346 346 345 344 346 348 349 349 349 349 348 346 344 344 342 341 342 341 341 342 343 342 341 344 347 349 349 348 349 348 345
145 152 144 133 125 117 106 93 78 66 56 48 45 40 32 22 11 2 357 355 356 356 353 353 354 352 349 348 349 346 343 344 345 346 347 348 348 348 348 347 348 350 352 353 353 352 349 344 344 345 344 343 342 341 341 341 341 340 341 343 345 346 346 346 346 345 343 342 342 342 342 342 341 341 342 341 340 342 345 348 349 350 349 347 344
166 175 159 136 122 114 107 96 78 65 58 53 47 37 24 17 14 9 0 356 354 352 350 349 351 351 347 344 345 347 347 346 344 343 344 345 346 347 348 350 352 355 356 352 348 346 345 341 340 340 340 339 339 338 338 338 338 338 338 338 340 342 343 342 343 343 342 340 340 341 342 342 341 340 341 341 341 341 343 346 349 349 347 346 345
171 171 162 146 130 120 111 103 89 70 58 52 46 35 19 7 2 2 1 0 360 358 355 351 348 347 346 344 344 346 347 346 343 341 341 343 345 346 348 352 356 357 356 352 346 341 341 340 338 338 337 335 335 336 336 336 335 335 335 334 335 336 339 340 341 341 341 340 339 339 340 341 341 340 340 341 342 342 342 344 346 347 346 345 344
170 164 159 154 143 135 135 129 110 80 62 52 38 28 16 3 357 354 351 350 353 357 359 357 351 346 344 343 345 348 348 346 343 341 340 344 346 346 347 351 356 356 355 351 345 338 337 337 336 336 335 333 333 333 333 333 333 333 333 333 333 333 336 338 339 339 339 339 338 338 338 339 340 340 339 339 340 341 341 343 344 345 345 343 341
168 159 158 162 155 150 159 164 150 105 62 51 31 16 7 1 356 350 344 341 340 341 345 351 353 348 344 343 345 347 347 346 343 342 343 345 348 348 347 349 351 352 351 349 344 337 334 334 333 333 332 331 331 331 330 330 331 331 330 330 331 331 333 336 336 336 336 336 336 336 336 337 339 340 338 337 338 339 339 340 341 342 341 340 338
166 157 161 172 169 167 176 183 182 193 41 21 4 359 358 353 347 342 340 339 335 332 335 342 346 347 346 345 343 343 344 344 343 342 344 347 348 348 347 345 343 342 342 342 340 336 334 333 332 331 331 330 329 330 329 329 329 330 329 329 328 328 330 332 332 333 333 333 333 333 334 335 337 338 337 336 335 336 336 336 337 338 338 338 337
168 164 173 182 180 179 185 191 205 226 246 303 322 340 347 342 338 338 339 338 334 331 333 338 341 343 345 346 342 340 340 342 342 343 346 348 348 347 343 339 336 334 334 335 335 332 332 332 332 330 330 329 329 329 328 328 328 329 329 328 327 327 328 329 330 330 330 330 331 332 332 333 335 336 336 333 332 333 334 335 335 335 336 337 337
178 179 183 184 185 191 197 198 211 230 245 273 308 327 329 328 334 338 335 332 331 330 332 334 335 335 338 340 340 338 338 340 343 345 347 347 347 345 341 337 334 330 329 330 331 329 328 330 331 330 329 328 328 328 327 327 327 327 327 327 327 327 327 328 328 328 328 328 329 330 331 331 333 334 334 331 330 330 331 332 333 333 334 336 337
187 188 188 187 193 203 209 212 222 234 248 272 299 313 314 318 327 331 328 327 328 329 329 328 329 331 334 336 337 336 336 338 341 342 343 343 343 342 338 335 333 330 328 328 329 328 327 328 329 328 328 327 327 327 327 326 326 325 325 325 325 326 326 326 326 327 327 327 327 328 329 329 330 331 331 329 328 328 328 329 331 331 331 332 332
189 189 191 195 202 208 213 221 231 240 250 266 286 298 304 311 318 321 323 324 324 324 324 323 325 330 334 334 335 333 331 332 335 336 336 337 338 338 336 333 331 329 328 327 328 327 326 326 326 326 326 326 326 326 326 325 325 324 324 323 322 322 323 323 324 324 324 324 325 326 327 327 329 330 329 328 328 327 326 325 327 328 328 327 328
193 193 195 200 207 212 217 225 233 241 250 263 279 288 294 304 311 315 318 319 318 320 321 321 324 330 332 333 333 330 325 326 329 331 332 333 333 332 332 331 329 328 327 327 327 326 324 324 325 325 325 325 325 325 324 324 323 323 322 321 320 319 320 321 321 321 321 322 323 324 324 325 327 327 326 326 326 326 325 324 324 326 326 327 328
194 197 199 203 209 214 221 228 236 244 252 262 274 283 291 300 306 309 311 314 316 318 319 321 325 329 330 331 331 327 324 324 326 327 328 329 329 328 329 330 329 328 326 325 325 324 323 322 323 324 323 323 324 323 322 322 322 321 320 319 317 317 317 317 318 319 320 320 320 321 322 323 324 323 323 323 324 324 324 324 324 325 326 327 329
196 201 204 207 213 219 225 232 241 249 256 264 274 283 290 296 300 303 307 311 315 316 316 318 323 327 328 329 329 326 324 325 325 324 325 326 326 327 328 329 329 328 327 326 326 324 322 321 322 323 322 322 322 322 320 320 320 319 318 317 316 314 314 314 315 317 318 318 318 319 320 321 321 321 320 321 321 322 322 322 323 325 325 326 328
199 206 210 213 220 227 232 237 245 251 256 265 275 282 288 292 296 302 307 310 313 314 314 316 320 322 324 327 328 325 324 325 324 323 324 324 325 326 327 328 328 327 327 327 327 325 322 321 321 322 322 323 323 322 321 320 320 318 316 315 313 312 313 314 315 316 316 315 315 316 317 318 319 319 318 319 320 320 320 321 321 322 324 325 327
204 208 213 219 225 231 236 241 246 251 256 264 272 279 286 291 296 302 305 307 310 312 312 314 317 317 319 323 324 324 324 324 323 323 324 323 324 325 326 327 327 326 326 327 327 325 323 322 321 321 322 323 323 323 322 321 320 318 315 313 311 311 314 315 316 316 314 312 311 313 315 316 316 316 315 316 318 317 316 317 318 319 321 323 324
208 211 215 221 227 233 238 243 247 251 258 265 272 279 286 291 294 297 300 302 305 308 309 312 315 315 317 320 321 322 323 323 322 323 323 323 323 325 326 326 326 326 326 326 326 325 324 323 321 320 321 322 322 323 322 322 321 319 317 316 314 313 315 316 315 314 311 309 309 312 314 314 314 313 313 314 315 313 313 313 315 317 318 319 320
210 214 217 224 230 235 241 245 249 254 259 265 272 279 285 289 292 295 298 301 304 306 308 311 313 315 316 318 320 321 322 322 322 322 322 322 323 324 325 325 325 325 324 325 325 324 324 323 322 321 320 321 321 321 321 322 321 321 320 318 317 316 318 317 314 311 310 309 310 312 314 313 313 312 313 313 312 311 311 312 313 314 316 317 318
213 216 221 227 233 238 243 246 250 254 258 264 271 277 283 288 292 295 298 301 304 306 308 310 313 314 315 317 319 320 321 320 320 321 321 322 323 324 324 323 323 323 323 323 324 324 324 323 322 322 321 320 320 320 320 321 321 321 320 320 319 319 319 318 314 312 311 310 310 312 314 313 311 310 311 311 310 310 310 310 311 313 314 315 317
217 219 224 231 235 240 245 248 251 255 259 264 271 277 282 287 291 294 298 302 304 306 308 310 312 313 314 315 317 319 319 319 319 320 321 321 322 323 323 322 322 322 322 322 323 324 324 323 322 322 321 320 320 319 319 320 321 321 321 320 320 320 320 317 314 312 311 311 312 314 314 313 310 309 309 309 309 309 309 309 310 312 313 314 316
220 222 227 233 238 243 247 249 253 257 260 264 271 277 281 285 289 293 297 301 303 306 309 310 311 312 313 314 316 318 318 318 318 319 320 321 322 322 322 322 322 322 322 322 322 323 323 323 323 322 321 320 320 319 319 319 320 321 321 320 320 321 319 317 314 312 312 314 317 317 315 312 309 309 309 309 309 309 308 308 309 310 311 312 314
223 225 230 235 240 246 249 251 254 258 260 265 271 276 280 284 289 293 297 300 303 306 309 309 310 311 313 314 315 316 316 317 318 318 319 320 321 321 321 321 321 322 321 321 322 322 323 323 323 322 321 320 320 319 319 319 321 322 322 321 321 321 321 319 318 317 318 319 319 318 315 312 309 309 308 309 308 308 307 307 308 308 309 310 312